MB7UKB-10 Weather Reports


Display with metric or nautical units.
time (UTC)temp
F
wind
direction
speed
MPH
gust
MPH
rain 1hr
in
rain 24hr
in
rain mn
in
humidity
%
barometer
mb
20260505182008 59 136 0.0 3.0 0.00 0.00 0.00 59 1011.7
20260505175009 60 134 2.0 4.0 0.00 0.00 0.00 57 1011.6
20260505172008 60 224 2.0 4.0 0.00 0.00 0.00 55 1011.8
20260505165008 60 265 3.0 3.0 0.00 0.00 0.00 56 1011.9
20260505162008 60 224 0.0 3.0 0.00 0.00 0.00 58 1011.8
20260505152009 60 291 0.0 4.0 0.00 0.00 0.00 57 1012.0
20260505125009 61 30 0.0 2.0 0.00 0.00 0.00 53 1012.5
20260505122009 61 163 2.0 3.0 0.00 0.00 0.00 53 1012.5
20260505115008 62 146 0.0 3.0 0.00 0.00 0.00 54 1012.7
20260505112009 60 117 2.0 3.0 0.00 0.00 0.00 58 1012.8
20260505102009 57 140 2.0 2.0 0.00 0.00 0.00 67 1013.2
20260505095009 56 293 2.0 3.0 0.00 0.00 0.00 69 1013.3
20260505092008 55 200 2.0 4.0 0.00 0.00 0.00 73 1013.2
20260505085009 55 122 2.0 4.0 0.00 0.00 0.00 74 1013.5
20260505082009 54 150 0.0 3.0 0.00 0.00 0.00 80 1013.5
20260505075008 53 162 0.0 2.0 0.00 0.00 0.00 81 1013.5
20260505065008 53 96 1.0 3.0 0.00 0.00 0.00 83 1013.9
20260505062008 51 146 1.0 2.0 0.00 0.00 0.00 85 1013.7
20260505055008 51 196 2.0 2.0 0.00 0.00 0.00 86 1013.8
20260505052009 51 153 2.0 2.0 0.00 0.00 0.00 86 1013.8
20260505035008 50 218 0.0 1.0 0.00 0.00 0.00 86 1014.0
20260505032008 50 9 0.0 1.0 0.00 0.00 0.00 86 1014.0
20260505025008 50 297 0.0 1.0 0.00 0.00 0.00 86 1013.9
20260505022009 50 89 0.0 2.0 0.00 0.00 0.00 87 1013.8
20260505015008 51 129 0.0 0.0 0.00 0.00 0.00 84 1014.1
20260505012009 52 143 0.0 2.0 0.00 0.00 0.00 82 1014.4
20260505005009 53 123 1.0 2.0 0.00 0.00 0.00 82 1014.4
20260505002009 53 5 1.0 2.0 0.00 0.00 0.00 81 1014.4
20260504235009 54 246 0.0 3.0 0.00 0.00 0.00 80 1014.6
20260504232009 54 297 0.0 2.0 0.00 0.00 0.00 81 1014.9
20260504225009 54 154 0.0 2.0 0.00 0.00 0.00 81 1014.8
20260504222009 54 245 0.0 3.0 0.00 0.00 0.00 79 1015.0
20260504215009 56 243 0.0 2.0 0.00 0.00 0.00 77 1015.2
20260504211223 56 117 0.0 2.0 0.00 0.00 0.00 76 1015.1
20260504204224 56 168 2.0 2.0 0.00 0.00 0.00 76 1015.1
20260504201223 56 76 0.0 3.0 0.00 0.00 0.00 76 1015.1
20260504194224 57 356 0.0 3.0 0.00 0.00 0.00 75 1014.6
20260504191225 58 100 0.0 3.0 0.00 0.00 0.00 73 1014.4
20260504184225 59 143 1.0 2.0 0.00 0.00 0.00 72 1014.4